User: anonymous   Login
Location: Prairie State College
(41.5244°N, 87.6382°W)
Time: 17:49:00
(UTC-06:00)
Language:

Cosmos 1943 - Orbit

View from above orbital plane
View from above orbital plane
View from above satellite
View from above satellite

Ground track
Ground track

The orbit data is extracted from the following two-line orbital elements,

1 19119U 88039A   16337.72441186 -.00000294  00000-0 -12678-3 0  9996
2 19119  71.0015 154.3522 0012038 344.6980  75.6267 14.15079803474306
Epoch (UTC): 02 December 2016 17:23:09
Eccentricity: 0.0012038
inclination: 71.0015°
perigee height: 833 km
apogee height: 851 km
right ascension of ascending node: 154.3522°
argument of perigee: 344.6980°
revolutions per day: 14.15079803
mean anomaly at epoch: 75.6267°
orbit number at epoch: 47430

The dashed part of the orbit path shows where the satellite is in the earth's shadow,  

DLR